SKYSAT-C11 (42987 NORAD) Tracking and Keplerian Element Data

This shows tracking and keplerian element data for the satellite.

Feedback or suggestion? Click here.




ElementValue
Catalog42987
NameSKYSAT-C11
Epoch Orbit27389
Epoch Day269.3212962
Epoch Year2022
RAAN27.6133
Inclination97.3014
Eccentricity4.81E-05
Argument of Perigee247.0024
Mean Anonmoly113.1171
Mean Motion15.37965809
Decay Rate9.189E-05
L11 42987U 17068A 22269.32129620 .00009189 00000+0 24824-3 0 9997
L22 42987 97.3014 27.6133 0000481 247.0024 113.1171 15.37965809273897

Live tracking and technical data element details for SKYSAT-C11 (NORAD 42987). SKYSAT-C11 can be tracked NOW for your location showing map with azimuth and elevation plus other details from your city location.

Track the satellite on the map from your city or location and see movement details for azimuth, elevation, latitude, longitude, range, height, and movement on the map or in text.







IsCatalogInMostPopularTable: catalog: 42987, numindb: 599
Update: records affected: 1



GetName: 42987 SKYSAT-C11

Hit Count: updated at: Fri, 30 Sep 2022 04:18:05 GMT